Flag for U.S.A. Weather past 2 weeks in Canton, Ohio, U.S.A.

Now
68 °F

Passing clouds.


Feels Like: 68 °F
Forecast: 65 / 81 °F
Wind: 5 mph from Southwest

Location: Akron-Canton Regional Airport

Current Time: Aug 21, 2014 at 4:49:36 AM

Latest Report: Aug 21, 2014 at 3:51 AM


Visibility: 9 mi

Pressure: 29.97 "Hg

Humidity: 87%

Dew point: 64 °F

Location of CantonLocation

Historic Weather in Canton — Graph

°F

Canton temperature yesterday

Maximum temperature yesterday: 80 °F (at 2:51 PM)
Minimum temperature yesterday: 66 °F (at 5:58 AM)
Average temperature yesterday: 72 °F

Past Weeks' High & Low Weather Summary

 TemperatureHumidityPressure
High85 °F (Aug 19, 2:51 PM)94% (Aug 20, 5:58 AM)30.15 "Hg (Aug 20, 5:58 AM)
Low51 °F (Aug 15, 6:51 AM)33% (Aug 13, 4:51 PM)29.69 "Hg (Aug 12, 4:51 PM)
Average69 °F68%29.96 "Hg
* Reported Aug 6 2:51 AM — Aug 21 2:51 AM, Canton, Weather by CustomWeather, © 2014

Note: Actual official high and low records may vary slightly from our data, if they occured in-between our weather recording intervals... More about our weather records

Advertising

Canton weather history for previous 24 hours

 ConditionsComfort  
Time TempWeatherWind HumidityBarometerVisibility
2:51 AM
Aug 21
69 °FClear.3 mph84%29.96 "Hg10 mi
1:51 AM70 °FClear.5 mph84%29.97 "Hg10 mi
12:51 AM70 °FClear.5 mph87%29.98 "Hg9 mi
11:51 PM
Aug 20
70 °FPassing clouds.5 mph87%29.98 "Hg9 mi
10:51 PM72 °FPassing clouds.3 mph84%29.97 "Hg10 mi
9:51 PM73 °FPassing clouds.5 mph81%29.94 "Hg10 mi
8:51 PM73 °FScattered clouds.6 mph81%29.92 "Hg10 mi
7:51 PM76 °FScattered clouds.5 mph77%29.92 "Hg10 mi
6:51 PM79 °FScattered clouds.5 mph67%29.90 "Hg10 mi
5:51 PM80 °FScattered clouds.10 mph64%29.91 "Hg10 mi
4:51 PM79 °FBroken clouds.8 mph67%29.90 "Hg10 mi
3:51 PM78 °FBroken clouds.9 mph69%29.90 "Hg10 mi
2:51 PM80 °FPartly sunny.12 mph67%29.90 "Hg10 mi
1:51 PM77 °FOvercast.13 mph71%29.91 "Hg10 mi
12:51 PM76 °FPartly sunny.14 mph72%29.91 "Hg10 mi
11:51 AM75 °FPartly sunny.10 mph74%29.91 "Hg10 mi
10:51 AM73 °FPartly sunny.10 mph74%29.90 "Hg10 mi
9:51 AM70 °FBroken clouds.8 mph81%29.90 "Hg10 mi
8:51 AM67 °FBroken clouds.8 mph90%29.89 "Hg10 mi
7:51 AM67 °FThunderstorms. Cloudy.8 mph90%29.88 "Hg8 mi
6:51 AM67 °FStrong thunderstorms. Fog.6 mph87%29.89 "Hg4 mi
5:58 AM66 °FThunderstorms. Mostly cloudy.6 mph94%29.87 "Hg8 mi
4:51 AM67 °FStrong thunderstorms. Fog.13 mph90%29.83 "Hg6 mi
Weather by CustomWeather, © 2014

See weather overviewHow to use our weather pages